Kosmos-1867

operational
NORAD ID: 18187 Int'l Des: 1987-060 Owner: VMF Country: SU
LEOCIRCULAR

About Kosmos-1867

Description loading...

Live Position

Loading 3D Globe...

Upcoming Passes

Altitude History

Altitude vs Time

uPlot chart will show altitude changes over time

Two-Line Element Set

1 18187U 87060A 26061.10580457 -.00000021 00000-0 29925-4 0 9996
2 18187 65.0120 327.9434 0014385 278.1874 81.7579 14.31501539 18852
Epoch: Mar 2, 2026 • Age: 26 hours

Current Status

Altitude 791.8 km
Velocity 7.46 km/s
Sub-Earth Point -36.37°S, 117.05°E
Launch Date Jul 10, 1987
Age 38.6 years
Type other

Technical Details

Classification Payload
Mass 980.00 kg
Dry Mass 980.00 kg
Total Mass 3550.00 kg
Length 9.30 m
Diameter 1.30 m
Span 16.50 m
Shape Cyl + Ant
Manufacturer ARSL/KOMET
Bus Type US-PM
Phase Status Attached in Orbit
Owner/State VMF/SU

Large Constellations

Loading constellations...